| time (UTC) | temp F | wind direction | speed MPH | gust MPH | rain 1hr in | rain 24hr in | rain mn in | humidity % | barometer mb |
| 20260903130040 | 80 | 201 | 0.0 | 0.0 | 0.00 | 0.00 | 0.00 | 89 | 1012.9 |
| 20260903124541 | 80 | 201 | 0.0 | 2.0 | 0.00 | 0.00 | 0.00 | 88 | 1012.7 |
| 20260903123036 | 80 | 205 | 0.0 | 4.0 | 0.00 | 0.00 | 0.00 | 86 | 1012.7 |
| 20260903121534 | 81 | 207 | 1.0 | 3.0 | 0.00 | 0.00 | 0.00 | 91 | 1012.4 |
| 20260903120034 | 81 | 198 | 0.0 | 0.0 | 0.00 | 0.00 | 0.00 | 92 | 1012.3 |
| 20260903114531 | 82 | 198 | 0.0 | 0.0 | 0.00 | 0.06 | 0.00 | 92 | 1012.2 |
| 20260903113036 | 82 | 198 | 0.0 | 0.0 | 0.00 | 0.06 | 0.00 | 92 | 1012.2 |
| 20260903111533 | 82 | 198 | 0.0 | 0.0 | 0.00 | 0.06 | 0.00 | 91 | 1012.1 |
| 20260903110030 | 82 | 198 | 0.0 | 0.0 | 0.00 | 0.06 | 0.00 | 91 | 1012.0 |
| 20260903104529 | 82 | 198 | 0.0 | 2.0 | 0.00 | 0.06 | 0.00 | 90 | 1011.9 |
| 20260903103029 | 82 | 198 | 0.0 | 1.0 | 0.00 | 0.06 | 0.00 | 91 | 1011.9 |
| 20260903101532 | 82 | 182 | 0.0 | 1.0 | 0.00 | 0.06 | 0.00 | 91 | 1011.8 |
| 20260903100026 | 82 | 182 | 0.0 | 0.0 | 0.00 | 0.06 | 0.00 | 91 | 1011.7 |
| 20260903094530 | 82 | 159 | 0.0 | 0.0 | 0.00 | 0.06 | 0.00 | 91 | 1011.7 |
| 20260903093039 | 82 | 159 | 0.0 | 0.0 | 0.00 | 0.06 | 0.00 | 90 | 1011.8 |
| 20260903091525 | 82 | 159 | 0.0 | 1.0 | 0.00 | 0.06 | 0.00 | 90 | 1011.8 |
| 20260903090031 | 82 | 159 | 0.0 | 1.0 | 0.00 | 0.06 | 0.00 | 90 | 1011.9 |
| 20260903084525 | 82 | 159 | 0.0 | 1.0 | 0.00 | 0.06 | 0.00 | 90 | 1011.9 |
| 20260903083024 | 82 | 157 | 0.0 | 3.0 | 0.00 | 0.06 | 0.00 | 90 | 1011.8 |
| 20260903081523 | 82 | 195 | 0.0 | 1.0 | 0.00 | 0.06 | 0.00 | 91 | 1011.6 |
| 20260903080029 | 82 | 191 | 0.0 | 1.0 | 0.00 | 0.06 | 0.00 | 90 | 1011.7 |
| 20260903074522 | 83 | 195 | 0.0 | 3.0 | 0.00 | 0.06 | 0.00 | 90 | 1011.6 |
| 20260903073028 | 83 | 191 | 0.0 | 2.0 | 0.00 | 0.06 | 0.00 | 89 | 1011.7 |
| 20260903071530 | 83 | 201 | 1.0 | 4.0 | 0.00 | 0.06 | 0.00 | 89 | 1011.8 |
| 20260903070016 | 83 | 191 | 0.0 | 4.0 | 0.00 | 0.06 | 0.00 | 89 | 1011.9 |
| 20260903064513 | 83 | 186 | 0.0 | 2.0 | 0.00 | 0.06 | 0.00 | 89 | 1012.1 |
| 20260903063012 | 83 | 195 | 0.0 | 3.0 | 0.00 | 0.06 | 0.00 | 89 | 1012.2 |
| 20260903061512 | 83 | 209 | 1.0 | 5.0 | 0.00 | 0.06 | 0.00 | 90 | 1012.3 |
| 20260903060012 | 83 | 203 | 0.0 | 3.0 | 0.00 | 0.06 | 0.00 | 91 | 1012.5 |
| 20260903054505 | 82 | 211 | 1.0 | 4.0 | 0.00 | 0.06 | 0.00 | 93 | 1012.6 |
| 20260903053100 | 81 | 208 | 0.0 | 1.0 | 0.00 | 0.06 | 0.00 | 96 | 1012.7 |
| 20260903051601 | 81 | 210 | 0.0 | 3.0 | 0.00 | 0.06 | 0.00 | 97 | 1012.7 |
| 20260903050056 | 81 | 205 | 0.0 | 2.0 | 0.00 | 0.06 | 0.00 | 97 | 1012.8 |
| 20260903044558 | 80 | 205 | 0.0 | 1.0 | 0.00 | 0.06 | 0.06 | 97 | 1012.8 |
| 20260903043056 | 80 | 205 | 0.0 | 1.0 | 0.00 | 0.06 | 0.06 | 97 | 1012.8 |
| 20260903041555 | 80 | 206 | 0.0 | 2.0 | 0.00 | 0.06 | 0.06 | 97 | 1012.8 |
| 20260903040055 | 81 | 192 | 0.0 | 3.0 | 0.00 | 0.06 | 0.06 | 97 | 1012.8 |
| 20260903034600 | 81 | 210 | 1.0 | 6.0 | 0.00 | 0.06 | 0.06 | 97 | 1012.6 |
| 20260903033100 | 81 | 202 | 0.0 | 3.0 | 0.00 | 0.06 | 0.06 | 97 | 1012.8 |
| 20260903031629 | 81 | 212 | 0.0 | 3.0 | 0.00 | 0.06 | 0.06 | 97 | 1012.6 |
| 20260903030055 | 81 | 203 | 0.0 | 4.0 | 0.00 | 0.06 | 0.06 | 97 | 1012.3 |
| 20260903024556 | 81 | 198 | 1.0 | 5.0 | 0.00 | 0.06 | 0.06 | 97 | 1012.1 |
| 20260903023051 | 81 | 202 | 0.0 | 3.0 | 0.00 | 0.06 | 0.06 | 97 | 1012.1 |
| 20260903021551 | 81 | 210 | 1.0 | 5.0 | 0.00 | 0.06 | 0.06 | 96 | 1011.7 |
| 20260903020053 | 81 | 212 | 1.0 | 3.0 | 0.00 | 0.06 | 0.06 | 96 | 1011.8 |
| 20260903014555 | 82 | 174 | 0.0 | 2.0 | 0.00 | 0.06 | 0.06 | 94 | 1011.7 |
| 20260903013049 | 85 | 200 | 0.0 | 4.0 | 0.00 | 0.06 | 0.06 | 87 | 1011.7 |
| 20260903011556 | 85 | 210 | 2.0 | 6.0 | 0.00 | 0.06 | 0.06 | 86 | 1011.4 |
| 20260903010050 | 85 | 198 | 1.0 | 4.0 | 0.00 | 0.06 | 0.06 | 85 | 1011.2 |
| 20260903004550 | 86 | 205 | 0.0 | 4.0 | 0.00 | 0.06 | 0.06 | 84 | 1011.4 |
| 20260903003052 | 86 | 193 | 1.0 | 7.0 | 0.00 | 0.06 | 0.06 | 83 | 1011.4 |
| 20260903001545 | 86 | 208 | 2.0 | 9.0 | 0.00 | 0.06 | 0.06 | 82 | 1010.7 |
| 20260903000045 | 87 | 204 | 2.0 | 9.0 | 0.00 | 0.06 | 0.06 | 81 | 1010.6 |
| 20260902234554 | 88 | 198 | 4.0 | 8.0 | 0.00 | 0.06 | 0.06 | 80 | 1010.8 |
| 20260902233044 | 89 | 190 | 2.0 | 8.0 | 0.00 | 0.06 | 0.06 | 79 | 1010.9 |
| 20260902231543 | 90 | 202 | 3.0 | 9.0 | 0.00 | 0.06 | 0.06 | 78 | 1010.8 |
| 20260902230047 | 91 | 115 | 4.0 | 9.0 | 0.00 | 0.06 | 0.06 | 76 | 1010.7 |
| 20260902224544 | 91 | 197 | 3.0 | 9.0 | 0.00 | 0.06 | 0.06 | 76 | 1010.7 |
| 20260902223045 | 93 | 167 | 3.0 | 8.0 | 0.00 | 0.06 | 0.06 | 75 | 1010.6 |
| 20260902221541 | 93 | 162 | 3.0 | 9.0 | 0.00 | 0.06 | 0.06 | 74 | 1010.7 |
| 20260902220040 | 92 | 191 | 4.0 | 10.0 | 0.00 | 0.06 | 0.06 | 74 | 1010.6 |
| 20260902214539 | 92 | 155 | 5.0 | 10.0 | 0.00 | 0.07 | 0.06 | 74 | 1010.6 |
| 20260902213038 | 93 | 195 | 3.0 | 8.0 | 0.00 | 0.07 | 0.06 | 74 | 1010.6 |
| 20260902211536 | 92 | 174 | 1.0 | 7.0 | 0.00 | 0.07 | 0.06 | 75 | 1010.9 |
| 20260902210043 | 93 | 173 | 3.0 | 10.0 | 0.00 | 0.07 | 0.06 | 74 | 1010.9 |
| 20260902204533 | 93 | 214 | 2.0 | 8.0 | 0.00 | 0.07 | 0.06 | 74 | 1011.0 |
| 20260902203038 | 95 | 152 | 3.0 | 8.0 | 0.00 | 0.07 | 0.06 | 73 | 1011.1 |
| 20260902201528 | 97 | 131 | 2.0 | 6.0 | 0.00 | 0.07 | 0.06 | 68 | 1011.4 |
| 20260902200026 | 96 | 252 | 0.0 | 5.0 | 0.00 | 0.07 | 0.06 | 73 | 1011.5 |
| 20260902194526 | 95 | 253 | 0.0 | 3.0 | 0.00 | 0.08 | 0.06 | 72 | 1011.8 |
| 20260902193023 | 94 | 257 | 0.0 | 3.0 | 0.00 | 0.08 | 0.06 | 74 | 1012.0 |
| 20260902191536 | 95 | 219 | 0.0 | 5.0 | 0.00 | 0.08 | 0.06 | 72 | 1012.0 |
| 20260902190021 | 96 | 153 | 2.0 | 7.0 | 0.00 | 0.08 | 0.06 | 71 | 1012.2 |
| 20260902184528 | 95 | 192 | 1.0 | 3.0 | 0.00 | 0.08 | 0.06 | 73 | 1012.2 |
| 20260902183014 | 94 | 285 | 0.0 | 5.0 | 0.00 | 0.08 | 0.06 | 74 | 1012.5 |
| 20260902181511 | 93 | 254 | 1.0 | 4.0 | 0.00 | 0.08 | 0.06 | 75 | 1012.7 |
| 20260902180008 | 92 | 261 | 0.0 | 3.0 | 0.00 | 0.08 | 0.06 | 76 | 1012.9 |
| 20260902174508 | 91 | 286 | 0.0 | 3.0 | 0.00 | 0.08 | 0.06 | 76 | 1013.2 |
| 20260902173006 | 92 | 295 | 0.0 | 4.0 | 0.00 | 0.08 | 0.06 | 77 | 1013.4 |
| 20260902171505 | 91 | 182 | 0.0 | 3.0 | 0.00 | 0.08 | 0.06 | 78 | 1013.6 |
| 20260902170003 | 91 | 225 | 0.0 | 3.0 | 0.00 | 0.08 | 0.06 | 79 | 1013.9 |
| 20260902164559 | 90 | 259 | 0.0 | 5.0 | 0.00 | 0.08 | 0.06 | 81 | 1014.1 |
| 20260902163116 | 88 | 233 | 0.0 | 5.0 | 0.00 | 0.08 | 0.06 | 85 | 1014.1 |
| 20260902161552 | 85 | 269 | 0.0 | 5.0 | 0.00 | 0.08 | 0.06 | 97 | 1014.1 |
| 20260902160048 | 84 | 105 | 0.0 | 4.0 | 0.00 | 0.08 | 0.06 | 97 | 1014.1 |
| 20260902154545 | 83 | 224 | 0.0 | 4.0 | 0.00 | 0.08 | 0.06 | 97 | 1014.1 |
| 20260902153043 | 82 | 127 | 0.0 | 3.0 | 0.00 | 0.08 | 0.06 | 98 | 1014.0 |
| 20260902151550 | 81 | 261 | 0.0 | 2.0 | 0.00 | 0.08 | 0.06 | 98 | 1013.8 |
| 20260902150040 | 80 | 274 | 0.0 | 2.0 | 0.00 | 0.08 | 0.06 | 98 | 1013.8 |
| 20260902144542 | 80 | 155 | 0.0 | 0.0 | 0.00 | 0.08 | 0.06 | 98 | 1013.8 |
| 20260902143036 | 79 | 155 | 0.0 | 0.0 | 0.00 | 0.08 | 0.06 | 98 | 1013.7 |
| 20260902141538 | 78 | 155 | 0.0 | 0.0 | 0.00 | 0.08 | 0.06 | 98 | 1013.7 |
| 20260902140038 | 77 | 155 | 0.0 | 0.0 | 0.00 | 0.08 | 0.06 | 98 | 1013.6 |
| 20260902134534 | 76 | 155 | 0.0 | 0.0 | 0.00 | 0.08 | 0.06 | 98 | 1013.7 |
| 20260902133033 | 76 | 155 | 0.0 | 0.0 | 0.00 | 0.08 | 0.06 | 97 | 1013.6 |
| 20260902131531 | 76 | 155 | 0.0 | 1.0 | 0.00 | 0.08 | 0.06 | 97 | 1013.3 |